Terug naar catalogus

FENGYUN 1C DEB

ActiefSSO
NORAD 35156·DEBRIS·🇨🇳 China

Gelanceerd May 10, 1999 vanaf Taiyuan Satellite Launch Center

Loading…

Volgende Passages (komende 24 uur)

TLE

VersSource: Space-Track

Epoch: Sep 14, 2026, 10:22 UTC

1 35156U 99025DML 26257.43225544  .00000258  00000-0  16634-3 0  9994
2 35156  98.7788 242.1531 0037541  88.6674 271.8798 14.10916765679314

Volg FENGYUN 1C DEB in realtime met AllMySat

Download on the App Store